TimeHST,TemperatureF,Dew PointF,Humidity,Sea Level PressureIn,VisibilityMPH,Wind Direction,Wind SpeedMPH,Gust SpeedMPH,PrecipitationIn,Events,Conditions,WindDirDegrees,DateUTC
12:53 AM,78.1,66.0,66,30.03,10.0,ESE,8.1,-,N/A,,Clear,120,2013-08-27 10:53:00
1:53 AM,79.0,64.9,62,30.02,10.0,ESE,4.6,-,N/A,,Scattered Clouds,110,2013-08-27 11:53:00
2:53 AM,79.0,64.9,62,30.02,10.0,Calm,Calm,-,N/A,,Mostly Cloudy,0,2013-08-27 12:53:00
3:53 AM,78.1,64.0,62,30.02,10.0,North,5.8,-,N/A,,Mostly Cloudy,360,2013-08-27 13:53:00
4:53 AM,78.1,63.0,60,30.03,10.0,NE,3.5,-,N/A,,Mostly Cloudy,50,2013-08-27 14:53:00
5:53 AM,77.0,64.9,66,30.03,10.0,ESE,6.9,-,N/A,,Scattered Clouds,120,2013-08-27 15:53:00
6:53 AM,78.1,66.9,68,30.04,10.0,SE,4.6,-,N/A,,Mostly Cloudy,140,2013-08-27 16:53:00
7:53 AM,81.0,66.9,62,30.05,10.0,SSE,10.4,-,N/A,,Mostly Cloudy,150,2013-08-27 17:53:00
8:53 AM,82.0,68.0,62,30.05,10.0,South,11.5,-,N/A,,Scattered Clouds,180,2013-08-27 18:53:00
9:53 AM,82.9,69.1,63,30.06,10.0,SSW,11.5,-,N/A,,Clear,200,2013-08-27 19:53:00
10:53 AM,84.9,69.1,59,30.05,10.0,SSW,11.5,-,N/A,,Partly Cloudy,210,2013-08-27 20:53:00
11:53 AM,84.0,69.1,61,30.03,10.0,South,11.5,-,N/A,,Overcast,180,2013-08-27 21:53:00
12:53 PM,84.0,69.1,61,30.01,10.0,SSE,12.7,-,N/A,,Mostly Cloudy,160,2013-08-27 22:53:00
1:53 PM,84.0,68.0,58,29.99,10.0,South,11.5,-,N/A,,Overcast,190,2013-08-27 23:53:00
2:53 PM,84.0,66.9,56,29.98,10.0,South,11.5,-,N/A,,Overcast,180,2013-08-28 00:53:00
3:53 PM,84.0,66.9,56,29.96,10.0,South,11.5,-,N/A,,Overcast,190,2013-08-28 01:53:00
4:53 PM,82.9,66.9,58,29.97,10.0,SSW,10.4,-,N/A,,Overcast,200,2013-08-28 02:53:00
5:53 PM,82.0,66.9,60,29.97,10.0,SSW,5.8,-,N/A,,Overcast,210,2013-08-28 03:53:00
6:53 PM,81.0,68.0,65,29.98,10.0,Calm,Calm,-,N/A,,Overcast,0,2013-08-28 04:53:00
7:53 PM,81.0,68.0,65,30.00,10.0,North,9.2,-,N/A,,Overcast,10,2013-08-28 05:53:00
8:05 PM,78.8,66.2,65,30.00,10.0,Calm,Calm,-,0.00,Rain,Light Rain,0,2013-08-28 06:05:00
8:53 PM,77.0,64.0,64,30.01,10.0,NE,9.2,-,0.01,,Clear,40,2013-08-28 06:53:00
9:53 PM,77.0,66.9,71,30.01,10.0,SE,8.1,-,N/A,,Clear,140,2013-08-28 07:53:00
10:53 PM,75.9,66.0,71,30.02,10.0,Variable,5.8,-,N/A,,Clear,0,2013-08-28 08:53:00
11:53 PM,78.1,64.9,64,30.01,10.0,Calm,Calm,-,N/A,,Clear,0,2013-08-28 09:53:00